Flag for U.S.A. Weather past 2 weeks in Shreveport, Louisiana, U.S.A.

50 °F

Light rain. Low clouds.

Feels Like: 48 °F
Forecast: 51 / 53 °F
Wind: 6 mph from Northwest

Location: Shreveport Regional Airport

Current Time: Nov 29, 2015 at 1:43:33 AM

Latest Report: Nov 29, 2015 at 12:56 AM

Visibility: 8 mi

Pressure: 30.16 "Hg

Humidity: 100%

Dew point: 50 °F

Location of ShreveportLocation

Historic Weather in Shreveport — Graph


Shreveport temperature yesterday

Maximum temperature yesterday: 52 °F (at 1:56 AM)
Minimum temperature yesterday: 49 °F (at 5:56 PM)
Average temperature yesterday: 50 °F

Past Weeks' High & Low Weather Summary

High77 °F (Nov 26, 2:56 PM)100% (Nov 17, 1:56 PM)30.41 "Hg (Nov 17, 1:56 PM)
Low31 °F (Nov 23, 6:56 AM)22% (Nov 24, 2:56 PM)29.57 "Hg (Nov 17, 10:56 AM)
Average58 °F72%30.12 "Hg
* Reported Nov 13 11:56 PM — Nov 28 11:56 PM, Shreveport, Weather by CustomWeather, © 2015

Note: Actual official high and low records may vary slightly from our data, if they occured in-between our weather recording intervals... More about our weather records


Shreveport weather history for previous 24 hours

Time TempWeatherWind HumidityBarometerVisibility
11:56 PM
Sat, Nov 28
49 °FLow clouds.5 mph100%30.16 "Hg10 mi
10:56 PM49 °FLight rain. Fog.5 mph100%30.18 "Hg6 mi
9:56 PM49 °FLight rain. Fog.No wind100%30.16 "Hg5 mi
8:56 PM49 °FRain. Fog.7 mph97%30.18 "Hg3 mi
7:56 PM49 °FRain. Fog.5 mph100%30.17 "Hg4 mi
6:56 PM49 °FLight rain. Fog.7 mph100%30.17 "Hg5 mi
5:56 PM49 °FLight rain. Fog.7 mph100%30.15 "Hg3 mi
4:56 PM50 °FDrizzle. Fog.8 mph96%30.14 "Hg3 mi
3:56 PM50 °FDrizzle. Fog.7 mph96%30.13 "Hg3 mi
2:58 PM50 °FDrizzle. Fog.10 mph93%30.13 "Hg1 mi
1:57 PM50 °FRain. Fog.No wind93%30.12 "Hg1 mi
12:56 PM50 °FFog.8 mph100%30.14 "Hg6 mi
11:56 AM50 °FFog.9 mph100%30.15 "Hg2 mi
10:56 AM51 °FFog.7 mph100%30.15 "Hg5 mi
10:01 AM51 °FDrizzle. Fog.7 mph100%30.16 "Hg2 mi
8:58 AM52 °FLight rain. Fog.7 mph93%30.15 "Hg3 mi
7:56 AM51 °FDrizzle. Fog.3 mph96%30.12 "Hg1 mi
6:56 AM52 °FLight rain. Low clouds.5 mph100%30.11 "Hg10 mi
6:03 AM52 °FLight rain. Low clouds.No wind100%30.12 "Hg8 mi
5:56 AM51 °FLight rain. Mostly cloudy.No wind100%30.11 "Hg7 mi
4:56 AM51 °FLight rain. Mostly cloudy.5 mph100%30.10 "Hg9 mi
4:03 AM51 °FLight rain. Mostly cloudy.6 mph100%30.12 "Hg10 mi
3:56 AM51 °FMostly cloudy.7 mph100%30.12 "Hg10 mi
2:56 AM51 °FDrizzle. Fog.5 mph100%30.12 "Hg3 mi
1:56 AM52 °FDrizzle. Fog.9 mph100%30.13 "Hg5 mi
Weather by CustomWeather, © 2015

See weather overviewHow to use our weather pages